Theta_e
326 327 329 329 330 328 326 325 325 324 324 324 323 325 326 327 326 326 326 326 325 324 319 323 325 321 322 321 321 320 320 320
326 326 329 329 330 329 327 326 326 324 323 323 322 324 324 324 323 324 325 324 325 325 323 321 325 323 323 324 321 320 320 320
325 325 327 328 329 329 326 325 325 324 322 323 322 321 322 323 323 322 323 324 324 324 324 323 322 323 323 321 321 321 320 320
325 325 325 328 328 328 326 325 324 323 322 322 321 321 321 321 321 322 322 321 322 322 322 321 320 322 321 320 320 319 318 317
325 325 324 327 327 327 326 324 323 323 322 322 321 320 320 320 320 320 320 321 322 320 321 321 320 319 318 319 318 318 317 316
326 324 325 326 327 327 325 324 324 322 322 322 320 319 320 319 319 319 319 320 320 319 320 319 318 318 317 318 318 318 316 315
326 324 326 326 327 326 325 323 321 322 322 321 320 319 319 318 319 320 319 321 320 320 320 318 317 318 320 319 318 318 318 319
327 325 325 325 326 325 324 323 321 322 321 322 321 320 319 318 318 320 320 320 320 320 319 318 321 319 319 321 320 321 321 321
327 326 325 325 326 325 324 323 322 321 321 321 321 321 320 319 318 319 320 320 320 320 319 319 320 319 320 320 321 321 319 319
328 326 325 325 326 325 324 324 323 322 322 321 321 320 321 320 319 318 319 319 319 319 319 320 320 319 321 320 320 321 320 319
325 327 325 325 326 325 325 325 324 323 322 322 321 321 320 320 320 319 318 318 319 319 318 318 319 320 321 320 319 319 320 319
320 327 326 325 326 326 325 324 323 324 323 322 321 321 321 320 320 321 320 318 318 319 318 318 319 319 319 320 320 320 319 319
321 327 326 325 325 326 325 324 324 323 323 323 321 321 322 322 321 320 320 320 319 319 319 318 319 320 320 320 319 320 320 319
321 323 324 326 325 325 326 325 324 324 324 322 322 321 322 322 322 322 321 320 320 319 319 318 318 320 320 320 320 320 320 319
321 321 322 323 323 325 325 325 325 324 324 323 322 321 321 321 322 321 322 321 321 320 319 319 319 319 320 321 321 321 321 320
321 322 321 319 319 318 319 321 325 325 324 324 324 323 322 321 321 321 323 322 322 321 320 319 319 320 320 321 321 321 321 321
320 319 316 314 312 312 313 315 318 322 325 324 325 324 324 323 322 322 322 324 323 323 322 322 321 320 321 321 321 321 320 320
317 313 310 307 305 306 308 314 313 317 315 315 322 324 325 325 324 323 323 323 324 324 324 324 323 322 322 321 321 321 320 319
311 307 304 301 300 301 305 306 306 307 307 308 309 310 312 320 326 326 326 325 325 325 325 325 324 324 324 323 323 323 321 321
Wind_Speed
20 29 26 24 24 21 20 18 19 19 16 17 19 22 28 36 37 41 36 34 33 38 38 39 32 35 32 27 33 30 29 28
24 29 31 28 27 26 25 22 22 22 19 19 18 21 25 31 37 36 35 32 28 38 39 39 29 35 30 31 33 30 28 30
17 24 29 31 31 27 25 24 25 24 23 22 17 17 22 29 34 39 41 35 27 35 36 33 23 33 23 28 32 25 27 31
17 17 24 30 31 31 29 26 25 24 23 22 21 19 21 22 30 37 38 38 29 31 31 41 24 30 28 24 25 25 21 20
19 18 19 27 30 32 28 26 29 28 25 23 27 21 21 20 29 34 33 32 33 32 33 35 34 29 31 30 25 24 23 19
22 20 25 27 33 33 30 29 28 29 30 29 28 21 23 25 25 31 29 29 31 29 29 27 27 27 26 27 25 24 22 24
21 22 28 25 33 33 32 30 28 30 31 29 29 26 25 24 24 27 29 27 32 34 32 29 27 30 30 30 28 27 29 30
19 19 17 24 29 31 31 31 26 31 32 29 32 30 32 31 31 28 27 28 34 35 35 36 32 31 35 29 31 32 31 27
20 21 19 26 29 32 30 31 27 30 32 31 29 28 31 30 34 32 31 30 30 32 36 37 36 33 31 34 29 31 30 30
20 20 19 27 30 32 31 31 29 32 32 31 31 31 28 30 32 34 35 31 30 32 36 36 36 37 37 33 30 32 31 32
15 18 17 29 32 32 33 34 30 31 32 30 30 31 31 30 28 34 34 35 35 33 35 36 35 36 38 37 36 37 37 38
8 17 20 27 29 30 31 31 30 28 31 30 29 29 33 30 30 31 34 35 37 38 39 38 36 39 41 40 39 35 35 38
11 15 14 23 26 27 30 29 29 33 32 32 30 29 30 33 33 31 34 35 38 39 38 39 41 39 40 40 40 37 38 38
18 19 11 6 23 25 27 28 30 29 36 33 32 33 32 33 32 31 35 36 36 37 39 41 40 41 41 42 42 42 43 42
17 16 13 17 24 14 15 29 33 34 34 36 35 36 36 36 33 34 34 36 36 38 42 41 42 41 42 42 42 43 43 45
16 16 14 16 20 22 24 24 12 29 32 34 35 39 39 37 37 36 35 39 38 38 38 40 41 43 44 44 44 44 43 43
16 16 16 16 21 21 19 21 22 23 23 24 32 33 35 38 38 39 40 38 39 38 40 40 39 42 45 47 43 38 39 40
16 16 15 21 23 23 24 23 24 25 21 30 14 21 34 37 37 38 39 39 36 41 41 37 38 40 44 46 49 49 42 44
14 13 20 25 28 31 28 27 26 23 25 24 25 27 23 16 32 37 37 36 39 40 40 40 37 40 40 44 50 49 47 43
Wind_Direction
164 154 158 158 170 173 169 166 171 169 170 174 179 179 178 179 174 171 169 166 171 176 175 172 177 185 187 190 180 178 178 176
160 156 159 162 166 167 172 173 170 170 165 167 171 177 178 180 183 179 175 167 174 183 183 182 187 191 191 193 179 180 183 179
155 157 159 163 167 172 169 175 176 178 173 178 180 188 196 197 193 186 182 177 174 180 182 182 189 198 179 184 181 175 183 175
158 161 164 158 159 166 168 179 180 183 180 170 172 169 159 164 180 181 180 181 185 180 182 181 172 179 183 201 178 179 172 174
161 161 166 161 169 176 176 184 184 185 185 171 165 169 162 173 175 180 183 189 195 183 170 175 189 181 182 187 187 187 181 181
167 169 170 166 164 174 178 181 189 185 184 179 174 179 173 168 171 180 185 199 203 184 184 180 191 195 191 195 196 193 193 197
165 165 159 163 163 167 174 177 183 189 185 181 179 177 176 177 176 181 192 200 206 206 203 207 210 206 200 202 203 206 206 207
155 156 162 163 159 165 171 176 177 185 190 184 187 185 183 186 186 187 193 199 198 204 207 207 210 213 210 209 209 209 210 214
160 166 167 168 162 163 170 177 178 186 191 192 190 191 194 192 193 195 199 205 208 206 206 210 214 217 216 218 220 218 221 221
163 167 168 168 166 171 170 174 184 187 191 193 199 201 195 197 201 200 202 204 208 208 214 211 215 219 224 224 224 227 225 225
162 167 169 170 168 170 175 180 182 186 190 193 197 200 206 205 202 203 206 208 208 210 214 221 225 225 226 226 227 230 229 231
187 168 163 164 165 168 174 177 182 183 190 197 198 201 205 208 209 208 209 212 213 214 215 218 219 223 227 227 228 227 228 228
36 145 147 157 164 169 176 182 183 189 192 198 201 205 208 211 214 212 212 215 216 217 219 221 223 225 225 224 227 225 226 227
40 50 31 147 165 174 178 180 187 190 195 197 201 204 209 215 215 213 215 216 217 219 221 224 225 228 229 228 228 229 231 234
50 48 46 44 40 21 186 187 191 194 192 194 200 204 209 214 218 221 220 220 221 220 221 224 225 227 228 228 228 229 231 233
47 48 49 40 31 24 20 25 247 206 195 197 200 204 207 211 213 219 223 224 226 224 225 226 226 228 230 228 227 226 226 229
45 51 40 34 18 12 13 2 0 12 249 220 205 204 204 208 211 214 218 222 222 225 228 228 228 230 232 231 227 227 230 233
43 43 35 19 10 7 4 13 17 24 24 20 316 228 206 210 210 211 217 219 220 224 229 229 230 231 234 235 236 235 235 236
43 33 27 17 7 5 4 13 19 19 14 9 8 359 353 293 215 212 216 215 218 222 227 228 230 234 237 237 238 239 236 239